Theta_e
351 347 348 353 358 358 358 359 360 359 359 359 359 359 356 355 357 360 362 364 367 368 369 368 367 366 366 366 365 364 364 363 361 360 360 360 359 357 356 356 356 354 354 353 353 352 349 348 347 345 344 344 343 343 342 343 343 342 342 342 341 341 340
351 348 346 351 356 359 358 359 361 361 360 360 361 360 357 355 357 360 362 364 367 369 370 369 369 367 367 367 366 365 365 364 363 361 360 360 360 359 357 356 356 356 355 353 352 352 350 348 347 345 345 344 343 344 343 342 343 342 342 342 341 341 340
347 350 350 352 358 361 359 359 361 361 360 361 361 360 359 358 359 360 361 364 367 368 369 370 370 369 368 368 367 367 367 365 364 362 361 360 360 360 358 357 357 357 356 354 353 352 351 350 348 346 345 345 343 343 343 343 344 343 341 341 341 341 340
346 351 353 356 359 361 360 360 361 362 361 360 362 362 362 360 361 361 361 364 368 368 368 369 369 369 368 368 368 368 368 366 365 363 362 361 360 360 359 358 359 357 355 355 354 352 352 350 348 347 346 345 343 343 343 343 344 343 341 341 341 340 340
348 351 354 357 359 360 361 360 361 363 361 360 362 363 364 363 363 362 362 365 367 368 368 368 368 369 368 369 368 368 369 367 366 365 363 362 361 361 361 360 359 357 355 355 354 352 352 350 348 347 346 344 343 342 342 343 344 343 342 342 342 341 340
345 348 353 357 358 359 361 360 361 363 361 360 362 364 365 364 364 363 363 365 366 367 368 367 367 369 369 369 368 368 369 369 368 366 364 364 362 362 363 361 361 359 355 355 355 353 351 349 347 347 345 343 343 343 343 343 343 343 343 343 343 342 341
341 346 352 357 358 358 359 359 361 363 362 360 361 364 365 364 364 362 362 364 365 366 367 367 367 367 369 369 368 368 369 369 369 368 366 365 364 364 365 363 362 359 357 357 356 354 351 349 347 346 345 343 342 343 343 342 342 343 344 343 343 343 341
340 347 353 357 357 356 358 360 360 362 362 359 360 364 364 363 363 360 361 363 363 364 365 365 365 367 369 369 369 369 369 369 369 368 367 366 365 365 365 364 363 361 358 358 356 353 351 349 347 346 345 343 342 343 344 343 342 343 344 343 343 343 341
342 351 356 356 352 353 358 359 361 363 363 360 361 364 363 361 361 359 359 361 362 363 363 362 363 366 369 370 370 370 369 368 369 369 367 367 366 366 365 364 363 361 359 358 356 353 352 350 347 346 345 343 343 344 343 343 343 343 343 343 343 342 341
342 350 358 358 353 354 356 358 362 365 366 365 364 364 364 362 360 359 358 359 360 361 361 361 361 364 369 371 369 369 369 369 369 369 368 366 366 366 364 363 363 362 359 358 356 354 352 350 347 346 344 342 343 345 342 341 342 343 343 343 342 341 340
343 351 360 361 357 356 356 359 367 370 371 371 367 365 365 362 361 361 359 359 359 360 360 360 359 363 369 371 369 369 370 369 369 370 368 367 365 365 363 362 362 361 359 358 357 355 353 350 347 347 344 342 345 346 342 340 343 343 342 341 340 338 338
349 359 367 363 358 359 360 366 370 371 373 372 366 365 366 364 362 361 361 361 359 358 360 361 360 361 366 370 369 370 371 370 369 369 368 367 366 364 363 361 360 361 360 358 357 355 352 350 348 347 343 343 346 345 341 342 344 344 342 340 338 338 337
359 363 367 364 359 361 365 369 370 370 371 370 366 365 366 365 364 363 364 363 359 358 361 362 361 361 365 369 369 370 371 371 370 369 368 368 366 364 363 360 357 359 360 358 356 355 353 350 349 347 345 345 345 343 343 345 345 344 342 340 339 339 336
366 364 365 363 361 363 365 367 369 369 370 370 368 366 367 366 364 364 365 364 362 360 361 363 363 362 364 368 370 371 372 372 371 370 368 368 367 365 364 360 358 359 360 358 356 355 353 351 349 347 346 346 344 342 345 346 344 343 342 339 339 339 337
363 364 364 364 362 364 366 367 370 371 370 370 369 368 368 368 366 366 366 366 364 361 361 364 365 365 365 368 370 372 373 372 371 369 368 367 366 365 364 361 359 359 360 358 356 354 353 350 348 347 346 345 343 342 344 345 342 341 340 338 339 340 339
351 354 359 364 365 365 366 368 371 372 371 371 370 370 370 369 368 368 367 367 366 363 362 365 367 367 367 368 370 372 373 372 369 368 367 365 364 364 362 361 359 359 359 358 356 355 353 350 348 348 346 345 344 344 344 342 340 338 337 338 340 341 339
339 339 344 355 364 366 368 370 373 373 373 372 371 371 371 370 370 369 368 368 367 365 364 366 368 369 368 369 371 372 373 371 368 367 366 364 363 363 361 360 359 359 358 357 356 355 353 351 349 346 344 345 345 344 342 340 339 338 336 336 336 337 338
337 337 337 346 360 368 370 370 373 374 372 371 371 372 372 372 372 370 369 370 369 366 365 368 370 371 371 371 372 372 373 371 367 367 366 365 363 363 362 360 359 359 359 357 356 355 353 349 347 346 345 345 343 341 339 339 339 338 336 333 330 330 336
336 336 338 348 359 366 369 368 370 372 373 372 371 372 372 372 372 371 370 371 371 368 367 369 372 372 373 373 373 373 372 369 366 366 366 365 364 363 361 360 360 360 358 357 356 355 352 349 348 347 345 343 341 338 336 337 338 337 336 332 326 324 329
337 335 336 345 350 356 366 369 369 371 374 374 371 371 372 371 372 372 371 371 372 370 369 371 373 374 374 374 374 374 371 367 365 365 365 364 363 363 361 359 359 358 355 355 356 355 353 351 349 346 343 341 339 336 335 337 338 337 335 331 325 323 325
340 337 336 342 347 353 365 371 368 370 374 372 370 370 372 372 372 371 372 373 373 371 371 372 373 375 375 374 374 373 370 366 364 364 364 363 362 362 360 359 359 357 354 354 355 354 353 350 347 344 342 340 337 334 335 338 338 336 333 329 325 325 325
337 337 335 342 351 360 370 369 367 370 372 370 369 370 371 372 372 372 372 374 373 372 373 373 373 375 375 374 374 372 368 365 362 362 362 362 361 360 359 358 358 356 355 354 353 353 350 346 343 341 339 338 336 334 336 338 337 335 333 329 327 326 326
334 334 336 343 351 363 370 368 367 371 371 369 368 369 371 371 371 372 373 374 373 373 374 373 374 375 374 374 374 371 367 366 363 361 360 360 360 358 357 356 355 355 355 353 351 351 347 343 339 337 336 336 334 334 334 335 335 335 333 330 327 327 328
334 333 336 344 354 363 369 368 368 370 370 368 368 370 371 370 371 373 374 374 373 373 373 373 373 373 373 372 373 370 368 366 364 361 359 360 359 357 355 354 354 353 352 350 349 348 346 342 339 336 335 333 332 332 333 332 333 333 332 331 329 329 331
338 335 338 349 357 364 368 367 367 369 368 368 370 372 370 369 371 373 373 374 374 371 371 371 371 371 371 371 371 369 367 365 363 360 359 358 357 355 354 353 352 350 349 348 347 346 344 342 340 337 335 334 333 333 332 331 332 333 333 333 333 333 334
339 337 341 351 357 362 365 366 368 370 369 369 371 370 368 367 370 372 372 372 371 368 368 369 369 370 369 369 368 367 364 362 360 359 357 357 356 354 353 352 350 348 346 345 345 344 343 341 338 337 335 335 335 335 334 333 333 333 333 334 335 335 334
344 343 345 351 358 363 366 367 369 369 367 368 369 367 366 369 371 370 370 368 366 366 366 368 369 369 368 367 365 363 361 360 358 357 356 355 355 353 352 351 349 346 344 343 343 342 341 339 338 337 337 337 337 337 337 336 336 335 334 334 335 336 335
348 350 352 358 362 364 365 365 366 367 367 368 367 366 367 370 370 368 367 366 366 367 368 368 368 367 365 364 362 359 358 358 357 356 354 354 354 353 351 349 348 346 343 342 341 341 340 339 339 339 338 338 338 339 339 339 338 338 337 335 336 337 336
355 357 360 362 363 363 365 367 368 368 369 367 366 367 368 368 368 367 367 368 368 367 367 366 365 364 362 361 360 358 357 356 355 354 353 353 353 352 350 348 346 344 342 341 341 341 340 340 340 339 340 340 341 341 340 339 340 340 339 338 338 338 338
362 362 362 361 362 364 366 368 366 365 364 364 365 366 367 368 369 369 368 368 366 364 364 364 362 360 359 358 358 357 355 354 352 352 352 352 352 350 347 346 345 344 342 341 342 341 341 341 341 341 341 342 343 341 338 338 341 341 341 340 339 339 338
361 361 360 360 362 364 363 363 363 363 364 365 366 366 367 368 368 368 366 365 362 362 362 361 359 358 356 356 356 355 353 351 351 350 350 350 350 348 346 344 344 344 342 342 343 342 342 342 342 342 342 342 342 339 337 338 340 340 338 338 337 337 336
359 359 359 360 361 361 361 362 363 364 366 366 365 365 366 365 364 364 363 361 360 360 359 358 357 356 354 354 353 351 350 350 349 349 349 347 347 347 346 344 344 344 344 343 343 343 342 342 342 342 341 341 340 338 338 340 340 337 335 334 334 334 333
359 357 358 358 358 359 360 360 360 361 364 364 363 361 361 360 360 360 359 359 359 358 357 356 354 353 352 352 351 350 349 349 348 348 347 346 346 347 346 344 344 344 344 343 343 343 342 342 341 341 341 340 339 338 340 341 339 337 334 331 330 331 331
360 360 359 359 359 359 361 361 360 360 362 362 360 358 357 357 357 357 357 357 357 357 356 354 352 352 351 350 349 349 349 348 347 347 346 345 345 346 345 345 343 343 343 343 343 343 342 341 342 340 340 340 338 338 340 340 338 338 335 331 329 329 329
358 360 362 362 361 360 361 362 361 360 360 359 357 357 356 355 355 355 356 356 356 356 355 353 352 351 350 349 348 348 348 347 346 346 346 345 343 342 343 344 344 344 343 342 342 342 342 342 340 339 338 338 337 337 339 339 338 337 336 333 331 329 329
353 354 357 360 360 360 361 361 360 360 359 357 357 356 354 354 354 354 354 355 356 355 354 353 352 350 349 348 347 346 347 346 345 346 346 344 341 339 339 340 341 342 342 340 339 339 340 340 338 336 337 338 337 337 339 339 337 336 335 334 333 331 330
351 351 353 356 358 359 360 359 360 359 358 357 356 355 354 354 353 353 354 355 355 354 353 353 351 349 348 347 345 344 345 345 345 346 345 343 341 339 338 338 338 338 338 339 338 337 337 337 337 336 336 336 336 338 339 338 336 335 334 333 332 331 331
349 349 351 354 356 358 358 358 359 359 358 357 356 354 354 354 353 354 354 353 353 353 352 352 349 347 347 345 344 343 343 344 345 345 344 343 342 340 339 338 337 335 334 335 336 336 335 335 335 334 334 335 335 335 335 335 334 333 332 332 331 330 330
Wind_Speed
16 14 15 16 18 19 20 21 21 23 27 29 30 32 32 31 30 29 28 29 30 29 29 29 28 27 27 27 26 25 24 23 22 21 20 20 19 18 17 16 16 15 14 13 12 13 13 12 12 13 12 11 10 10 10 10 10 10 8 7 6 5 5
15 16 18 19 19 20 21 21 21 25 28 30 31 32 32 31 31 30 29 30 31 30 30 29 29 28 27 27 26 25 25 24 23 22 21 20 20 19 18 17 16 15 15 15 14 14 14 14 14 14 14 13 12 12 13 13 13 13 12 10 9 8 7
14 16 18 19 19 19 20 21 22 26 29 30 31 32 32 32 33 33 31 30 31 30 29 29 29 28 27 26 25 25 25 25 24 23 22 21 21 20 19 18 17 16 16 16 15 15 15 16 16 16 15 14 14 14 15 15 16 16 15 14 12 11 9
13 16 18 19 19 18 19 21 21 25 29 31 32 32 33 34 33 33 32 30 31 31 30 30 30 28 27 26 25 25 25 25 24 24 23 22 21 21 20 19 18 18 17 17 16 16 16 17 17 17 17 16 15 16 16 16 16 17 16 15 15 13 12
12 13 15 16 18 17 18 19 21 25 29 31 33 33 33 34 33 32 32 31 31 31 32 30 28 27 27 26 25 24 25 26 25 24 23 22 22 22 21 21 20 20 19 18 18 17 18 18 18 18 18 18 17 18 19 18 17 17 17 15 15 15 13
11 10 12 14 16 17 19 21 23 28 31 32 33 33 33 34 33 32 32 31 31 31 30 30 28 27 27 27 25 24 24 25 25 25 24 23 23 23 23 23 22 21 20 20 19 20 20 20 19 19 19 19 19 19 20 20 19 18 18 16 15 15 15
12 12 14 15 16 17 19 20 23 28 31 31 32 32 33 33 33 33 32 31 32 31 30 30 30 29 28 27 26 25 25 25 25 25 25 24 24 24 23 23 23 22 21 21 22 22 23 23 22 22 22 21 20 20 20 20 20 19 19 18 17 17 17
14 13 14 15 15 16 17 18 20 24 28 29 30 31 32 33 32 32 32 31 31 31 30 30 30 30 28 27 27 26 26 26 26 26 26 25 25 25 24 23 23 23 23 24 25 25 26 26 25 25 25 23 22 22 21 20 21 20 19 19 19 18 18
12 12 13 14 15 15 15 16 17 20 24 27 28 30 32 32 31 32 32 31 30 31 31 31 30 30 28 27 27 27 27 26 26 26 27 27 26 26 25 24 25 26 26 26 26 26 27 27 27 27 27 25 24 24 22 21 21 21 20 20 21 19 18
8 10 12 13 13 12 13 15 15 16 18 20 23 27 30 30 30 31 31 31 30 31 31 31 30 29 28 27 27 28 28 27 27 27 27 27 26 26 26 25 26 27 28 26 26 27 27 27 28 29 29 27 25 25 24 23 23 22 21 21 21 21 19
5 7 10 12 12 12 13 14 14 13 13 15 20 25 27 28 29 30 30 31 30 30 30 30 29 28 28 27 27 28 28 28 28 27 28 28 27 26 27 27 27 27 27 27 27 27 28 28 29 30 30 28 26 26 26 25 25 24 23 21 21 21 20
7 7 10 12 12 12 13 12 13 13 13 15 21 24 25 26 28 28 29 30 30 28 29 29 29 28 28 27 27 28 28 28 28 28 28 28 27 26 27 28 27 26 27 28 28 28 28 30 31 31 31 29 27 26 26 25 25 24 23 21 21 21 21
9 9 9 11 12 12 12 11 13 15 14 17 21 23 24 26 27 27 28 29 28 27 27 28 28 27 27 27 26 26 27 28 28 28 28 27 26 25 27 29 28 27 27 28 29 29 30 31 31 31 31 31 29 27 26 25 24 23 22 22 22 21 22
13 13 12 13 13 13 13 13 14 15 15 17 21 23 24 25 26 26 26 27 27 26 26 26 26 26 26 26 25 25 26 27 26 25 24 25 25 25 26 28 28 27 27 28 30 31 31 31 32 31 31 31 30 28 25 25 24 23 23 23 22 21 22
15 14 14 15 14 14 14 14 15 16 16 17 20 22 23 24 25 25 24 25 25 25 25 24 25 25 25 24 24 24 25 25 24 23 23 24 24 25 25 26 26 26 27 29 30 31 31 31 31 31 30 28 28 26 24 24 24 24 26 25 23 22 21
14 12 13 13 14 14 14 15 16 16 17 17 18 22 23 23 24 25 24 24 24 24 24 23 24 25 25 24 24 23 23 23 23 23 24 24 25 26 26 25 24 25 27 28 28 28 28 28 28 27 27 26 26 25 24 23 24 26 29 28 25 22 20
14 13 12 11 13 14 14 15 16 17 18 19 20 23 23 23 23 24 24 24 24 25 24 24 24 25 25 24 23 22 22 23 23 23 23 24 24 25 25 26 25 25 27 27 26 24 23 23 23 23 23 24 25 25 24 23 24 28 32 31 27 23 18
13 13 12 10 10 12 15 16 17 19 20 20 22 25 24 23 23 24 23 24 24 25 25 24 24 24 23 23 22 21 22 22 21 22 21 22 23 21 22 25 24 22 22 23 22 21 20 20 21 21 21 22 24 24 23 22 24 28 31 31 30 25 20
14 15 13 9 9 12 16 17 18 20 20 20 24 27 26 24 24 23 24 24 24 24 24 24 23 23 22 22 21 21 21 21 20 21 20 20 20 20 21 23 21 19 19 20 20 20 19 18 20 20 20 21 23 24 23 22 23 25 27 30 30 27 24
17 18 16 10 10 14 16 16 16 18 20 22 25 26 25 23 22 22 23 24 24 24 24 23 22 22 21 21 21 21 21 20 20 20 20 20 19 19 21 22 20 20 22 23 22 20 19 19 19 20 21 22 23 23 21 20 22 24 26 29 29 26 25
18 19 17 11 12 15 15 16 15 16 20 23 25 25 24 23 22 22 23 24 24 24 24 23 22 21 21 21 21 21 21 21 21 20 20 20 19 18 20 22 21 21 23 24 20 18 19 19 19 20 21 22 23 22 20 18 21 24 27 29 28 24 22
19 20 18 13 12 13 14 16 17 18 20 23 25 25 24 24 23 23 23 23 24 23 23 23 21 20 21 21 21 21 20 21 21 20 20 20 19 18 19 20 19 19 20 20 17 16 17 15 16 20 21 21 21 20 18 17 19 22 25 27 27 24 21
22 22 18 13 13 14 16 18 19 20 22 24 25 25 24 24 23 24 23 23 23 22 22 22 21 20 20 20 20 21 20 20 20 19 19 19 19 19 18 18 18 17 16 18 17 16 16 13 15 20 22 23 23 21 19 20 21 22 23 25 25 23 22
19 19 15 13 14 15 18 20 21 23 25 25 25 25 25 24 24 24 23 23 23 22 22 20 20 20 19 19 20 20 20 20 19 18 19 19 19 18 17 17 17 15 15 17 18 17 17 14 13 17 21 24 24 23 22 22 22 22 22 22 21 21 22
18 17 13 13 15 16 18 21 22 24 26 25 25 26 27 26 25 24 22 22 22 22 20 19 19 19 19 19 20 19 19 19 19 18 19 19 18 18 17 16 15 14 15 17 17 16 16 15 13 15 18 20 21 23 23 22 21 21 21 20 19 21 23
15 14 12 13 16 17 19 21 21 22 23 25 25 27 28 26 24 23 21 21 21 20 19 19 18 18 18 18 18 18 17 17 18 17 17 18 17 17 17 15 14 15 16 15 15 14 14 15 15 16 17 17 18 20 21 22 22 23 23 23 22 23 24
9 10 11 13 15 18 19 20 20 19 20 22 24 26 26 25 22 21 20 20 19 18 18 19 18 18 18 17 16 16 16 15 16 16 15 16 17 16 16 15 15 17 16 12 12 14 14 15 16 16 16 17 18 19 21 23 24 23 24 26 25 24 23
9 9 10 13 17 18 18 18 18 19 19 21 23 24 24 23 21 21 20 19 18 19 19 19 18 18 17 16 15 15 14 14 15 14 14 15 16 16 16 15 15 17 16 12 12 14 14 14 15 14 14 15 17 17 16 17 18 18 21 24 23 21 22
9 10 11 14 16 18 17 16 18 20 21 21 22 22 22 22 22 22 21 21 20 21 21 20 19 18 17 16 15 14 14 14 14 13 13 15 16 17 16 15 15 17 17 14 13 14 14 13 14 14 14 14 14 12 8 7 10 14 16 19 19 18 19
10 11 12 13 15 18 18 17 18 20 21 22 22 22 22 23 23 22 22 21 21 21 21 20 20 20 18 16 15 14 13 13 13 13 13 15 17 17 17 16 16 17 17 16 15 14 14 14 14 15 14 11 9 8 7 7 9 12 13 15 16 16 16
11 11 13 14 16 20 21 20 21 21 21 22 23 22 22 22 23 23 21 20 20 21 21 20 19 19 19 17 16 14 12 13 13 13 14 15 16 17 17 17 18 18 17 17 15 15 15 14 14 14 13 9 7 7 9 9 10 11 11 13 14 13 14
12 14 15 16 18 21 23 24 23 22 22 23 23 22 21 21 22 22 20 19 20 20 20 20 19 19 19 17 16 14 13 13 14 14 14 15 16 17 17 17 17 17 16 15 15 15 14 14 14 13 11 9 8 8 9 9 10 8 8 11 14 15 15
14 14 15 16 19 22 23 21 19 19 21 22 22 22 21 20 20 21 21 20 20 20 20 21 20 19 18 17 15 14 14 15 15 15 14 15 16 17 16 16 16 15 14 14 14 13 13 13 12 11 11 9 9 10 8 8 9 8 7 10 14 16 18
15 16 16 18 20 21 21 19 17 19 20 20 20 21 21 20 20 20 20 19 20 20 21 21 21 20 19 17 15 14 14 14 15 15 15 14 13 13 14 14 14 14 13 12 10 10 12 11 8 7 9 10 10 10 9 7 9 10 10 12 14 16 19
16 17 17 19 21 21 21 19 19 20 20 19 19 20 20 20 19 19 19 18 19 19 19 19 19 19 18 18 16 14 14 13 14 15 14 12 10 11 12 11 12 12 10 7 5 5 9 10 7 5 7 8 9 11 10 8 10 12 12 13 15 16 18
15 16 17 20 21 21 21 20 20 20 19 18 19 19 19 19 19 18 18 18 18 17 17 17 17 17 17 16 16 15 15 14 14 14 13 12 11 11 12 11 10 10 8 6 5 5 6 9 8 6 6 7 10 13 12 9 11 13 12 13 17 17 16
14 15 16 19 19 18 19 19 18 19 18 17 17 18 18 17 17 16 16 16 16 16 16 16 16 16 15 14 15 15 15 14 13 14 13 11 10 11 12 11 9 8 7 7 7 7 7 8 9 7 6 6 9 12 11 9 10 13 13 15 17 16 15
18 17 17 18 17 16 17 16 16 16 16 15 16 16 16 16 16 15 15 15 15 14 14 14 14 13 13 14 15 15 13 12 13 14 13 11 11 11 11 10 8 7 6 6 7 7 7 8 8 7 6 6 8 11 13 11 12 14 14 13 13 14 13
Wind_Direction
176 199 216 215 204 196 193 190 187 188 189 190 192 193 195 195 194 194 194 194 194 194 194 195 197 199 201 204 205 205 205 204 206 208 210 213 216 216 213 210 210 208 206 203 199 199 199 197 196 192 193 199 195 191 191 189 189 187 185 187 189 192 199
179 194 208 208 203 197 194 190 187 188 189 189 190 191 193 193 192 193 194 194 194 194 193 194 196 198 201 203 204 204 204 204 205 206 207 211 213 214 213 211 209 206 204 202 201 199 196 194 193 192 192 194 192 191 190 191 191 190 188 187 189 192 198
196 199 206 203 198 195 193 190 188 188 189 188 189 189 190 190 191 193 193 193 194 194 194 194 195 197 199 200 201 202 203 203 204 204 206 209 210 210 211 210 207 205 202 201 201 199 195 191 190 192 192 190 191 192 193 196 195 193 190 186 186 191 196
211 205 205 199 194 193 192 191 189 189 189 189 189 188 187 187 188 191 192 192 192 193 194 195 195 196 198 198 199 200 200 201 202 203 205 208 208 207 207 206 203 203 201 199 200 199 194 189 188 191 191 190 192 192 195 200 199 197 195 190 187 189 194
211 211 207 199 191 192 193 191 191 189 189 190 189 187 186 185 186 189 191 192 193 194 195 195 195 195 196 197 198 198 198 199 200 202 204 206 206 205 204 203 200 200 201 200 199 195 189 188 189 189 190 192 195 194 195 198 199 200 200 195 190 189 191
194 208 214 205 193 192 193 192 192 192 191 189 187 185 184 184 186 188 190 191 194 195 195 195 195 195 195 196 197 197 196 196 198 199 201 203 204 204 203 202 199 199 201 200 197 191 187 189 190 189 191 195 197 197 197 196 196 198 200 198 195 193 193
180 196 211 208 199 196 193 193 193 193 194 191 186 184 183 185 187 189 191 192 194 195 194 195 195 195 195 195 196 195 193 194 196 197 199 200 201 203 202 201 201 200 199 197 193 189 187 189 190 190 193 197 198 199 200 198 195 196 197 198 197 196 196
177 185 203 204 204 203 194 194 195 193 194 192 186 184 184 186 188 189 192 193 194 195 196 196 196 195 194 193 193 193 192 193 194 195 198 199 200 201 200 200 200 197 194 193 192 189 188 189 189 190 192 196 198 198 199 198 196 196 197 198 199 199 200
163 166 195 200 205 209 196 193 195 191 191 192 188 185 184 185 187 190 192 193 193 195 197 198 197 195 192 191 191 191 192 194 195 196 198 198 199 200 200 200 198 194 193 194 191 190 190 190 190 191 191 195 198 198 197 197 197 198 199 199 199 201 202
144 162 187 194 203 208 199 192 192 189 188 190 189 185 185 185 186 189 191 192 194 195 196 198 197 194 191 190 190 190 192 194 195 197 198 200 201 200 201 202 199 196 195 194 192 191 192 192 191 191 192 195 198 197 195 196 198 200 200 200 201 201 201
168 178 176 186 200 203 199 191 187 186 183 186 188 186 186 185 184 187 190 192 194 195 195 196 196 194 190 190 191 191 192 193 195 197 199 201 202 201 202 202 201 199 196 193 194 194 193 192 192 192 193 194 196 196 195 197 197 199 200 200 202 203 202
177 180 169 183 197 199 198 188 182 184 180 184 188 186 185 185 184 186 188 191 194 194 193 193 194 193 190 190 192 192 192 193 195 198 200 201 202 202 202 204 205 203 196 194 198 197 194 193 193 193 194 195 196 196 197 198 196 197 200 199 200 203 203
164 179 176 186 195 197 196 185 180 182 180 183 188 186 185 184 185 186 185 189 193 192 191 191 192 191 189 190 192 191 192 194 195 199 200 201 202 202 203 207 211 207 198 197 201 199 197 196 194 193 193 194 195 195 195 196 194 195 199 198 198 201 203
172 180 179 186 192 193 193 186 180 180 180 182 186 186 185 185 186 186 185 187 190 190 189 188 188 188 188 188 190 190 192 194 195 197 199 200 201 202 204 209 212 208 200 200 203 201 201 200 195 193 192 193 193 192 191 192 192 193 197 198 198 200 204
182 179 182 186 188 189 188 186 181 180 181 182 185 186 186 186 185 185 185 186 187 188 186 183 182 184 186 187 189 190 190 192 195 198 200 202 202 204 207 209 211 210 205 204 205 205 204 203 198 193 191 192 191 188 188 189 190 194 198 199 199 199 203
194 195 196 186 185 188 187 186 183 181 182 182 185 187 187 186 184 184 184 184 184 185 182 178 177 180 183 186 187 187 186 189 196 199 202 204 204 206 212 213 211 211 213 211 208 207 207 205 201 195 190 188 186 183 184 187 191 198 200 198 197 198 203
218 223 220 199 190 187 185 188 185 183 185 184 185 189 188 185 183 182 182 180 179 181 178 175 174 176 181 184 184 184 183 186 195 198 198 203 206 208 212 217 218 217 218 217 211 208 209 208 203 199 193 187 181 180 182 186 194 202 203 201 200 201 204
238 238 234 216 201 190 186 190 187 187 191 186 183 188 189 184 180 179 179 176 175 176 175 173 173 174 179 181 180 182 183 185 195 199 197 202 208 206 207 215 221 219 213 210 210 210 211 208 203 200 194 185 180 181 183 187 198 205 206 205 206 205 206
243 246 239 212 195 198 195 194 192 191 192 188 183 186 187 184 179 178 176 172 170 172 171 171 171 172 176 178 178 181 184 188 196 199 198 201 202 198 203 213 218 212 206 210 217 216 209 203 197 191 187 181 180 183 185 190 201 208 209 210 211 213 214
235 244 245 216 199 211 205 199 197 191 191 191 184 181 183 182 178 175 172 168 167 168 168 168 169 170 173 175 176 180 184 188 194 194 194 197 194 191 202 212 210 209 216 226 229 222 213 205 192 182 178 177 178 181 184 191 201 208 212 212 212 216 219
227 235 241 225 213 215 204 197 197 189 187 189 182 176 177 179 175 171 168 166 165 165 165 167 168 169 172 174 176 179 182 187 191 188 187 193 193 193 203 210 207 208 220 228 227 218 214 207 189 179 179 179 181 183 185 193 203 211 215 213 212 218 220
227 231 234 222 213 211 196 191 193 185 181 182 178 173 174 175 173 169 166 164 163 162 164 166 167 169 170 172 174 176 179 184 186 186 186 189 191 194 202 208 210 211 216 223 221 212 207 197 182 182 184 179 182 186 188 195 205 211 212 210 211 219 223
232 232 227 212 204 196 184 185 187 180 176 177 176 171 170 171 169 165 163 162 161 161 162 164 167 168 169 169 170 172 175 178 180 183 186 186 186 192 199 205 211 212 211 217 220 212 203 189 181 189 191 186 187 192 195 202 210 211 210 210 215 223 227
235 234 222 206 197 182 174 180 182 175 172 174 172 166 164 166 165 162 161 160 159 159 161 164 167 166 166 166 166 167 169 172 174 178 181 182 184 192 199 202 204 205 206 213 218 216 210 199 188 193 197 196 197 200 202 206 212 214 215 217 225 230 227
232 231 218 198 187 175 171 176 175 170 170 170 166 161 161 163 162 160 159 157 156 157 159 163 164 163 163 162 161 162 163 166 171 175 178 182 186 191 195 194 195 201 206 211 216 217 213 207 201 199 195 192 197 203 207 211 214 215 217 221 223 224 223
222 219 207 192 182 172 168 169 169 169 170 168 162 158 159 160 159 157 155 152 152 154 156 158 159 158 157 155 155 158 160 163 169 172 176 181 183 186 189 186 186 195 201 205 210 212 207 204 204 203 197 195 203 208 212 217 221 222 224 225 221 219 221
201 198 190 177 164 158 159 163 166 167 165 161 156 153 154 155 153 150 147 145 146 148 149 149 149 148 147 147 150 154 156 159 164 167 172 176 175 178 184 182 179 183 188 194 203 205 202 201 205 209 210 211 218 221 220 223 227 226 223 219 216 216 220
169 170 163 149 145 151 156 158 157 155 152 149 146 146 148 148 142 137 136 135 134 137 137 137 136 134 136 140 144 148 152 154 157 162 165 168 169 171 173 173 171 176 183 192 197 196 196 200 206 213 217 219 224 227 225 223 222 214 205 204 209 216 219
145 140 136 134 140 148 150 146 146 147 144 140 139 142 142 137 130 127 127 126 126 129 129 127 128 129 132 138 142 146 150 150 153 158 159 165 172 169 165 165 166 171 183 192 190 189 191 196 203 210 213 215 219 221 217 204 198 194 194 201 210 217 218
133 136 139 141 143 144 143 141 141 142 138 133 133 135 132 126 121 119 120 121 125 127 125 125 128 131 133 136 140 145 149 149 151 155 155 161 167 163 163 170 168 169 182 189 185 186 190 194 202 209 210 208 203 202 203 193 187 194 203 207 208 209 211
137 140 140 138 136 135 134 132 129 127 124 119 117 118 118 118 117 114 114 119 123 123 123 127 131 132 133 135 139 145 150 150 153 157 155 157 162 161 166 174 174 174 184 189 188 191 195 198 205 207 203 193 177 189 205 192 179 191 203 201 200 204 207
128 130 132 131 128 126 124 121 117 113 107 104 103 105 108 111 113 112 113 118 122 124 127 131 133 133 133 134 138 146 152 154 158 160 159 162 168 168 169 174 177 178 183 187 191 196 200 207 209 196 179 169 172 194 204 183 171 186 204 196 194 199 204
112 115 120 120 118 116 113 112 111 105 101 102 104 106 109 110 112 116 122 127 129 131 134 137 138 136 132 134 142 152 159 160 160 160 161 166 172 174 173 175 177 176 179 188 196 200 202 206 201 179 158 158 180 194 192 179 178 192 202 194 192 195 200
102 101 101 100 101 103 102 102 103 101 100 102 105 109 113 116 119 125 129 132 134 136 140 143 141 137 134 138 147 155 158 159 160 162 164 165 168 170 171 174 177 177 181 191 203 208 200 189 180 172 163 162 176 187 184 183 195 200 192 185 185 191 196
92 90 89 89 89 91 94 97 99 99 100 103 108 113 117 120 125 130 131 132 136 140 143 144 141 139 139 143 148 152 153 156 163 166 160 151 145 147 147 155 167 171 170 177 198 208 186 171 170 198 192 174 182 198 199 196 204 209 200 183 179 184 189
82 83 83 84 85 87 89 93 97 99 102 106 111 115 119 122 128 131 132 134 139 141 142 141 139 139 142 147 152 155 157 161 167 167 161 152 146 140 134 138 156 162 155 161 177 177 169 168 170 179 182 178 187 198 201 199 203 210 201 178 173 177 181
69 76 80 82 83 86 89 91 95 99 102 106 111 114 117 121 123 125 127 130 135 139 142 143 141 143 151 157 155 156 162 166 163 158 156 153 149 146 142 141 150 157 159 171 178 169 164 172 175 170 167 171 177 184 192 197 198 199 191 178 176 178 179
55 61 68 72 74 78 83 87 92 97 102 108 112 114 116 116 116 119 124 129 135 140 144 147 149 153 158 153 146 151 163 164 155 151 149 146 147 152 152 149 150 157 165 178 188 189 180 179 191 201 192 180 177 181 186 186 185 188 191 190 191 192 190